Location: Gebenbach
(49.5378°N, 11.8735°E)
Time: 04:22:42
(UTC+00:00)

Cosmos 1980 Rocket - Pass Details

Date: 29 October 2020
Orbit: 831 x 848 km, 71.0° (Epoch: 25 November)

Event Time Altitude Azimuth Distance (km) Brightness Sun altitude
Rises 17:30:53 0° 176° (S) 3,377 5.3 -16.0°
Reaches altitude 10° 17:33:32 10° 166° (SSE) 2,444 4.5 -16.5°
Maximum altitude 17:38:25 32° 105° (ESE) 1,415 2.8 -17.3°
Enters shadow 17:39:31 29° 84° (E) 1,486 2.9 -17.4°
